[[{"header":{"parameterUnit":"m.s-1","parameterCategory":1,"la1":30.2991,"la2":30.254,"lo1":-89.0895,"lo2":-89.0444,"dy":0.0017,"dx":0.0017,"nx":28,"ny":28,"refTime":"2025-08-10T03:00:00:Z","depth":0,"parameterNumber":2,"parameterNumberName":"U-component_of_WINDS"},"data":[0,0,0,0,0,0,0,0,0,0,0,0,0,0,0,0,0,0,0,0,0,0,0,0,0,0,0,0,0,0,0,0,0,0,0,0,0,0,0,0,0,0,0,0,0,0,0,0,0,0,0,0,0,0,0,0,0,0,-1.0677,-1.0677,0,-1.0655,-1.0654,-1.0654,-1.059,-1.0588,-1.0587,-1.0586,-1.0566,-1.0566,-1.0567,0,0,0,0,0,0,0,0,0,0,0,0,0,-1.0668,-1.0668,-1.0677,-1.0677,-1.0677,-1.0655,-1.0654,-1.0654,-1.059,-1.0588,-1.0587,-1.0585,-1.0565,-1.0566,-1.0567,0,0,0,0,0,0,0,0,0,0,0,0,0,-1.0661,-1.0669,-1.0677,-1.0642,-1.0639,-1.0655,-1.0654,-1.0654,-1.059,-1.0588,-1.0586,-1.0584,-1.0565,-1.0566,-1.0567,-1.0617,0,0,-1.0571,-1.0571,0,0,0,0,0,0,0,0,-1.0662,-1.0662,-1.0647,-1.0644,-1.0641,-1.0623,-1.0644,-1.0642,-1.0591,-1.0609,-1.0586,-1.0583,-1.0586,-1.0586,-1.0586,-1.0616,-1.0615,-1.0571,-1.0572,-1.0572,-1.0572,0,0,0,0,0,0,0,-1.0662,-1.0663,-1.0668,-1.0647,-1.0643,-1.0628,-1.0625,-1.0643,-1.061,-1.0607,-1.0602,-1.06,-1.0584,-1.0585,-1.0585,-1.0615,-1.0571,-1.0572,-1.0573,-1.0573,-1.0685,-1.0687,0,0,0,0,0,0,-1.0668,-1.0663,-1.0669,-1.0668,-1.0646,-1.063,-1.0627,-1.0631,-1.0609,-1.0604,-1.0602,-1.0597,-1.0584,-1.0584,-1.0584,-1.0641,-1.0572,-1.0573,-1.0574,-1.0682,-1.0685,-1.0688,0,0,0,0,0,0,-1.0668,-1.0669,-1.067,-1.0664,-1.0663,-1.0633,-1.0638,-1.0631,-1.0632,-1.0606,-1.06,-1.0609,-1.0583,-1.0583,-1.0609,-1.064,-1.0574,-1.0575,-1.068,-1.0683,-1.0686,-1.0755,0,0,0,0,0,0,-1.0668,-1.0669,-1.0687,-1.0665,-1.0664,-1.0694,-1.064,-1.0633,-1.0634,-1.0628,-1.0611,-1.0606,-1.0581,-1.0608,-1.061,-1.064,-1.0576,-1.0677,-1.0681,-1.0685,-1.075,-1.076,-1.0769,0,0,0,0,0,-1.0667,-1.0707,-1.0688,-1.0689,-1.0685,-1.0696,-1.0696,-1.0665,-1.0637,-1.0655,-1.0638,-1.0606,-1.0636,-1.0611,-1.0613,-1.0644,-1.0675,-1.068,-1.0685,-1.0746,-1.0758,-1.0769,0,0,0,0,0,0,-1.0734,-1.0704,-1.0682,-1.0716,-1.0709,-1.0685,-1.0707,-1.068,-1.0681,-1.0675,-1.0639,-1.0636,-1.0667,-1.0658,-1.0631,-1.0691,-1.065,-1.0656,-1.0696,-1.0708,-1.0717,-1.0718,-1.0577,0,0,0,0,0,-1.0753,-1.0763,-1.0737,-1.0769,-1.0767,-1.0738,-1.0742,-1.0719,-1.0711,-1.0708,-1.0693,-1.0687,-1.0695,-1.0701,-1.0706,-1.0749,-1.0745,-1.0771,-1.0781,-1.0789,-1.0794,-1.0817,-1.0828,-1.0704,-1.0704,-1.0704,0,0,-1.0791,-1.0776,-1.0785,-1.0782,-1.0774,-1.0787,-1.0736,-1.0751,-1.0761,-1.071,-1.0734,-1.0723,-1.0714,-1.0749,-1.0763,-1.0742,-1.0828,-1.0795,-1.0802,-1.0803,-1.0823,-1.0835,-1.0845,-1.0708,-1.0707,-1.0707,0,0,-1.0868,-1.0857,-1.0883,-1.0876,-1.0865,-1.0845,-1.0852,-1.0832,-1.0823,-1.0846,-1.0809,-1.082,-1.0834,-1.083,-1.0829,-1.0906,-1.0877,-1.0909,-1.0959,-1.0982,-1.0991,-1.1,-1.1028,-1.1038,-1.0914,-1.0915,-1.0915,0,-1.0917,-1.0934,-1.09,-1.0918,-1.0919,-1.0873,-1.09,-1.0895,-1.0887,-1.0889,-1.0865,-1.0882,-1.0873,-1.0906,-1.0925,-1.0926,-1.0933,-1.091,-1.0993,-1.1001,-1.1008,-1.1034,-1.1045,-1.0918,-1.0918,-1.0918,-1.0917,0,-1.0996,-1.1008,-1.1031,-1.1023,-1.1026,-1.1049,-1.1019,-1.1027,-1.1004,-1.0988,-1.1013,-1.1,-1.1003,-1.1009,-1.0988,-1.104,-1.1027,-1.0999,-1.0957,-1.1024,-1.1048,-1.1058,-1.0924,-1.0923,-1.0922,-1.0921,0,0,-1.1113,-1.1086,-1.1095,-1.1091,-1.1076,-1.1085,-1.1107,-1.1108,-1.1116,-1.1112,-1.1129,-1.1143,-1.1116,-1.1116,-1.1094,-1.1114,-1.1175,-1.1083,-1.1082,-1.11,-1.1233,-1.1254,-1.1266,-1.1157,-1.1158,-1.116,-1.1234,0,-1.1185,-1.1218,-1.1189,-1.1229,-1.124,-1.1198,-1.1216,-1.121,-1.1195,-1.1204,-1.1188,-1.1198,-1.1163,-1.1162,-1.118,-1.1164,-1.1202,-1.1159,-1.1173,-1.1174,-1.1176,-1.1279,-1.1301,-1.1372,-1.1243,-1.1244,-1.1245,0,-1.1274,-1.1273,-1.1314,-1.1296,-1.13,-1.1317,-1.1317,-1.1325,-1.1317,-1.1305,-1.1306,-1.1278,-1.1299,-1.1259,-1.1287,-1.1258,-1.1263,-1.1257,-1.1259,-1.1259,-1.1214,-1.1282,-1.1393,-1.1404,-1.126,-1.1259,-1.1258,0,-1.1355,-1.1365,-1.139,-1.1388,-1.1368,-1.1382,-1.1374,-1.1364,-1.1367,-1.1368,-1.137,-1.1373,-1.1375,-1.1379,-1.1354,-1.1327,-1.1386,-1.1343,-1.1378,-1.1378,-1.1392,-1.1391,-1.1506,-1.1395,-1.1395,-1.1395,-1.1395,0,-1.1439,-1.1465,-1.1427,-1.1442,-1.1471,-1.1438,-1.1468,-1.1456,-1.1448,-1.1461,-1.1425,-1.1439,-1.1405,-1.1416,-1.1396,-1.1424,-1.1425,-1.1416,-1.1411,-1.142,-1.1421,-1.1422,-1.1416,-1.1397,-1.1397,-1.1396,-1.1396,0,-1.1535,-1.151,-1.1534,-1.1514,-1.1509,-1.1532,-1.1514,-1.1529,-1.1512,-1.153,-1.1532,-1.1507,-1.1517,-1.1493,-1.15,-1.1487,-1.1526,-1.1513,-1.1528,-1.1524,-1.156,-1.1557,-1.1679,-1.1694,-1.1574,-1.1575,-1.1576,0,-1.159,-1.1609,-1.159,-1.1596,-1.1591,-1.1601,-1.1604,-1.1573,-1.1578,-1.1571,-1.1587,-1.1594,-1.1598,-1.1618,-1.1601,-1.1607,-1.1593,-1.1636,-1.1594,-1.1602,-1.1594,-1.1593,-1.1596,-1.1644,-1.1646,-1.1647,-1.1648,0,-1.169,-1.1677,-1.1682,-1.1684,-1.1688,-1.1688,-1.1686,-1.1693,-1.166,-1.1668,-1.1678,-1.1682,-1.1689,-1.1698,-1.17,-1.1693,-1.1666,-1.1661,-1.167,-1.1679,-1.1687,-1.1683,-1.1552,-1.1659,-1.1658,-1.1657,-1.1656,-1.1656,-1.1767,-1.1782,-1.1772,-1.1779,-1.1774,-1.1773,-1.1785,-1.177,-1.1778,-1.1781,-1.1763,-1.1777,-1.177,-1.177,-1.1766,-1.1778,-1.1759,-1.1771,-1.1774,-1.1777,-1.1783,-1.1685,-1.1778,-1.1778,-1.1777,-1.1777,-1.1777,0,-1.1865,-1.1857,-1.1864,-1.1861,-1.1868,-1.1841,-1.1837,-1.1845,-1.1857,-1.1852,-1.1857,-1.187,-1.1878,-1.1862,-1.1868,-1.188,-1.1868,-1.1883,-1.1882,-1.1881,-1.18,-1.1792,-1.1893,-1.1893,-1.1893,-1.1893,-1.1893,-1.1893,-1.1918,-1.1942,-1.1928,-1.1951,-1.1942,-1.1955,-1.1955,-1.1954,-1.195,-1.1965,-1.1972,-1.1961,-1.1952,-1.1957,-1.1964,-1.1959,-1.1963,-1.1982,-1.1973,-1.1898,-1.1886,-1.1876,-1.1868,-1.1983,-1.1984,-1.2053,-1.2054,-1.2054]},{"header":{"parameterUnit":"m.s-1","parameterCategory":1,"la1":30.2991,"la2":30.254,"lo1":-89.0895,"lo2":-89.0444,"dy":0.0017,"dx":0.0017,"nx":28,"ny":28,"refTime":"2025-08-10T03:00:00:Z","depth":0,"parameterNumber":3,"parameterNumberName":"V-component_of_WINDS"},"data":[0,0,0,0,0,0,0,0,0,0,0,0,0,0,0,0,0,0,0,0,0,0,0,0,0,0,0,0,0,0,0,0,0,0,0,0,0,0,0,0,0,0,0,0,0,0,0,0,0,0,0,0,0,0,0,0,0,0,1.3423,1.3423,0,1.3441,1.3441,1.3441,1.3375,1.3373,1.3371,1.3369,1.3391,1.3394,1.3396,0,0,0,0,0,0,0,0,0,0,0,0,0,1.3335,1.3337,1.3423,1.3423,1.3423,1.3441,1.3441,1.3441,1.3375,1.3373,1.337,1.3368,1.3391,1.3394,1.3397,0,0,0,0,0,0,0,0,0,0,0,0,0,1.3365,1.3338,1.3423,1.3392,1.339,1.3441,1.3441,1.3441,1.3376,1.3373,1.337,1.3367,1.339,1.3393,1.3397,1.3479,0,0,1.3408,1.341,0,0,0,0,0,0,0,0,1.3364,1.3369,1.3397,1.3394,1.3392,1.3402,1.3418,1.3454,1.3376,1.3381,1.3369,1.3365,1.3398,1.3401,1.3411,1.348,1.3481,1.3409,1.3411,1.3412,1.3413,0,0,0,0,0,0,0,1.3362,1.3368,1.343,1.3397,1.3394,1.3379,1.338,1.3425,1.3406,1.338,1.3376,1.3378,1.3396,1.3407,1.3411,1.3482,1.3408,1.3412,1.3414,1.3415,1.3619,1.3622,0,0,0,0,0,0,1.3363,1.3366,1.3429,1.343,1.337,1.3383,1.3384,1.3402,1.3405,1.3403,1.3381,1.3375,1.3402,1.3406,1.3411,1.3507,1.3412,1.3416,1.3418,1.3615,1.3619,1.3623,0,0,0,0,0,0,1.3361,1.3369,1.3429,1.3397,1.3403,1.3387,1.3408,1.3404,1.3415,1.3406,1.3402,1.3396,1.34,1.3406,1.3462,1.3507,1.3417,1.3421,1.3612,1.3617,1.3621,1.37,0,0,0,0,0,0,1.3359,1.3369,1.34,1.3398,1.3405,1.3479,1.3411,1.3406,1.3421,1.3414,1.3419,1.3417,1.3398,1.3457,1.3466,1.351,1.3424,1.3608,1.3614,1.362,1.3693,1.3706,1.3718,0,0,0,0,0,1.3356,1.3422,1.3401,1.3409,1.3443,1.3481,1.3486,1.3462,1.3425,1.3456,1.345,1.3417,1.35,1.3463,1.3473,1.3519,1.3605,1.3612,1.3619,1.3687,1.3704,1.3718,0,0,0,0,0,0,1.3431,1.3422,1.3398,1.3466,1.3475,1.347,1.3508,1.348,1.3501,1.3494,1.3465,1.3466,1.3528,1.3529,1.3488,1.3598,1.3546,1.3556,1.3595,1.3611,1.3623,1.3621,1.3427,0,0,0,0,0,1.3455,1.3486,1.3477,1.3537,1.3542,1.3525,1.3541,1.3521,1.353,1.3534,1.3532,1.3543,1.3571,1.3591,1.3617,1.3693,1.3693,1.3729,1.3742,1.3752,1.376,1.3799,1.3815,1.3646,1.3646,1.3646,0,0,1.3506,1.3505,1.3526,1.3552,1.3557,1.359,1.3529,1.3567,1.3591,1.354,1.3592,1.3592,1.3602,1.3668,1.3697,1.3671,1.3807,1.3761,1.3769,1.3772,1.3809,1.3825,1.3839,1.3651,1.365,1.365,0,0,1.3615,1.3617,1.3667,1.3672,1.3679,1.3667,1.3679,1.3678,1.3675,1.3727,1.3689,1.3718,1.3769,1.3777,1.3788,1.3899,1.3869,1.3908,1.3974,1.4012,1.4026,1.4037,1.4076,1.4091,1.3917,1.3917,1.3917,0,1.3678,1.3725,1.3697,1.3737,1.3749,1.3702,1.3753,1.376,1.3776,1.3786,1.3756,1.3817,1.3821,1.3888,1.3915,1.3925,1.3938,1.3907,1.4026,1.4037,1.4048,1.4084,1.4099,1.3922,1.3921,1.3921,1.392,0,1.3801,1.3835,1.3874,1.3888,1.3905,1.3951,1.393,1.3951,1.393,1.3921,1.3974,1.3976,1.4001,1.4016,1.3997,1.408,1.4063,1.403,1.3978,1.4069,1.4103,1.4117,1.3928,1.3927,1.3925,1.3924,0,0,1.3959,1.3955,1.397,1.3975,1.3979,1.4005,1.4049,1.4071,1.4089,1.4102,1.4138,1.4181,1.4149,1.4162,1.4143,1.4177,1.4264,1.4139,1.4139,1.4162,1.4355,1.4379,1.4396,1.4244,1.4246,1.4249,1.4354,0,1.4065,1.4137,1.4112,1.4186,1.4216,1.4172,1.4209,1.4216,1.4209,1.4235,1.4227,1.4257,1.4214,1.4221,1.4253,1.4247,1.4302,1.4239,1.4277,1.4279,1.4276,1.4414,1.444,1.4539,1.4367,1.4369,1.4371,0,1.4199,1.4214,1.429,1.4288,1.4299,1.4334,1.4352,1.4377,1.4384,1.4376,1.4389,1.4363,1.4406,1.4353,1.4412,1.4369,1.4384,1.4383,1.4386,1.4389,1.433,1.442,1.4571,1.4585,1.4392,1.439,1.4388,0,1.4305,1.4345,1.4395,1.4402,1.44,1.4425,1.4426,1.4429,1.4444,1.4461,1.447,1.4492,1.4505,1.4523,1.4503,1.4467,1.4565,1.4511,1.456,1.4561,1.4583,1.4582,1.4738,1.4593,1.4593,1.4593,1.4592,0,1.4426,1.4474,1.4443,1.4474,1.4527,1.4498,1.4552,1.4548,1.4551,1.4581,1.4545,1.4575,1.4547,1.4574,1.456,1.461,1.4617,1.4612,1.4607,1.4615,1.4615,1.4624,1.4616,1.4596,1.4596,1.4595,1.4594,0,1.4553,1.4534,1.4586,1.458,1.4579,1.4618,1.4613,1.4642,1.4632,1.467,1.4678,1.4662,1.4692,1.4674,1.4705,1.4695,1.4761,1.4747,1.4758,1.4754,1.4805,1.48,1.4971,1.4992,1.4834,1.4836,1.4837,0,1.4632,1.4667,1.4664,1.468,1.4683,1.4711,1.4725,1.4698,1.4715,1.4725,1.4753,1.4779,1.4799,1.4849,1.4841,1.4864,1.4851,1.4909,1.4854,1.486,1.4851,1.4849,1.4852,1.492,1.4922,1.4923,1.4925,0,1.4772,1.4761,1.4782,1.48,1.4817,1.4831,1.4841,1.4857,1.483,1.4851,1.488,1.4895,1.4926,1.4952,1.4972,1.4974,1.4945,1.4942,1.4954,1.4962,1.4967,1.4964,1.4788,1.4938,1.4937,1.4936,1.4935,1.4935,1.4877,1.4906,1.4908,1.4933,1.4937,1.4947,1.4974,1.4966,1.4989,1.501,1.4994,1.5028,1.5034,1.5057,1.5062,1.509,1.5066,1.5085,1.5089,1.5094,1.5101,1.4963,1.5093,1.5093,1.5093,1.5092,1.5092,0,1.5015,1.5014,1.5037,1.5051,1.5071,1.504,1.505,1.5069,1.5099,1.5106,1.5125,1.5158,1.5184,1.5177,1.52,1.5223,1.5211,1.523,1.5228,1.5229,1.5121,1.5107,1.524,1.524,1.524,1.524,1.524,1.524,1.5089,1.5137,1.5125,1.5175,1.5173,1.5205,1.5213,1.5223,1.5228,1.5266,1.5286,1.5281,1.5283,1.5305,1.5327,1.5325,1.5335,1.5359,1.5352,1.5251,1.5237,1.5223,1.521,1.5362,1.5362,1.5458,1.5459,1.546]}]]